Year,Month,Day,Hour,Minute,Value (Times are PST for temperature in C)
2015,08,18,00,00,16.90
2015,08,18,00,01,16.90
2015,08,18,00,02,16.90
2015,08,18,00,03,16.90
2015,08,18,00,04,16.90
2015,08,18,00,05,16.80
2015,08,18,00,06,16.80
2015,08,18,00,07,16.80
2015,08,18,00,08,16.70
2015,08,18,00,09,16.70
2015,08,18,00,10,16.70
2015,08,18,00,11,16.70
2015,08,18,00,12,16.60
2015,08,18,00,13,16.60
2015,08,18,00,14,16.60
2015,08,18,00,15,16.60
2015,08,18,00,16,16.60
2015,08,18,00,17,16.60
2015,08,18,00,18,16.60
2015,08,18,00,19,16.60
2015,08,18,00,20,16.60
2015,08,18,00,21,16.60
2015,08,18,00,22,16.60
2015,08,18,00,23,16.60
2015,08,18,00,24,16.60
2015,08,18,00,25,16.70
2015,08,18,00,26,16.70
2015,08,18,00,27,16.60
2015,08,18,00,28,16.60
2015,08,18,00,29,16.70
2015,08,18,00,30,16.70
2015,08,18,00,31,16.70
2015,08,18,00,32,16.70
2015,08,18,00,33,16.80
2015,08,18,00,34,16.80
2015,08,18,00,35,16.80
2015,08,18,00,36,16.80
2015,08,18,00,37,16.80
2015,08,18,00,38,16.80
2015,08,18,00,39,16.80
2015,08,18,00,40,16.80
2015,08,18,00,41,16.90
2015,08,18,00,42,16.90
2015,08,18,00,43,16.90
2015,08,18,00,44,16.90
2015,08,18,00,45,16.90
2015,08,18,00,46,17.00
2015,08,18,00,47,17.00
2015,08,18,00,48,17.00
2015,08,18,00,49,17.00
2015,08,18,00,50,17.10
2015,08,18,00,51,17.10
2015,08,18,00,52,17.00
2015,08,18,00,53,17.00
2015,08,18,00,54,17.00
2015,08,18,00,55,17.00
2015,08,18,00,56,16.90
2015,08,18,00,57,17.00
2015,08,18,00,58,17.00
2015,08,18,00,59,17.10
2015,08,18,01,00,17.10
2015,08,18,01,01,17.10
2015,08,18,01,02,17.20
2015,08,18,01,03,17.20
2015,08,18,01,04,17.20
2015,08,18,01,05,17.20
2015,08,18,01,06,17.20
2015,08,18,01,07,17.20
2015,08,18,01,08,17.20
2015,08,18,01,09,17.20
2015,08,18,01,10,17.20
2015,08,18,01,11,17.20
2015,08,18,01,12,17.10
2015,08,18,01,13,17.10
2015,08,18,01,14,17.10
2015,08,18,01,15,17.10
2015,08,18,01,16,17.00
2015,08,18,01,17,16.90
2015,08,18,01,18,16.90
2015,08,18,01,19,16.90
2015,08,18,01,20,16.80
2015,08,18,01,21,16.80
2015,08,18,01,22,16.70
2015,08,18,01,23,16.70
2015,08,18,01,24,16.70
2015,08,18,01,25,16.70
2015,08,18,01,26,16.60
2015,08,18,01,27,16.60
2015,08,18,01,28,16.60
2015,08,18,01,29,16.50
2015,08,18,01,30,16.50
2015,08,18,01,31,16.40
2015,08,18,01,32,16.40
2015,08,18,01,33,16.40
2015,08,18,01,34,16.40
2015,08,18,01,35,16.30
2015,08,18,01,36,16.30
2015,08,18,01,37,16.30
2015,08,18,01,38,16.40
2015,08,18,01,39,16.40
2015,08,18,01,40,16.40
2015,08,18,01,41,16.40
2015,08,18,01,42,16.40
2015,08,18,01,43,16.40
2015,08,18,01,44,16.40
2015,08,18,01,45,16.40
2015,08,18,01,46,16.40
2015,08,18,01,47,16.40
2015,08,18,01,48,16.40
2015,08,18,01,49,16.40
2015,08,18,01,50,16.40
2015,08,18,01,51,16.40
2015,08,18,01,52,16.40
2015,08,18,01,53,16.40
2015,08,18,01,54,16.30
2015,08,18,01,55,16.30
2015,08,18,01,56,16.30
2015,08,18,01,57,16.30
2015,08,18,01,58,16.30
2015,08,18,01,59,16.30
2015,08,18,02,00,16.30
2015,08,18,02,01,16.30
2015,08,18,02,02,16.30
2015,08,18,02,03,16.20
2015,08,18,02,04,16.20
2015,08,18,02,05,16.20
2015,08,18,02,06,16.10
2015,08,18,02,07,16.10
2015,08,18,02,08,16.10
2015,08,18,02,09,16.00
2015,08,18,02,10,16.00
2015,08,18,02,11,16.00
2015,08,18,02,12,15.90
2015,08,18,02,13,15.90
2015,08,18,02,14,15.90
2015,08,18,02,15,15.90
2015,08,18,02,16,15.90
2015,08,18,02,17,15.90
2015,08,18,02,18,15.80
2015,08,18,02,19,15.80
2015,08,18,02,20,15.80
2015,08,18,02,21,15.80
2015,08,18,02,22,15.80
2015,08,18,02,23,15.80
2015,08,18,02,24,15.80
2015,08,18,02,25,15.80
2015,08,18,02,26,15.80
2015,08,18,02,27,15.70
2015,08,18,02,28,15.70
2015,08,18,02,29,15.70
2015,08,18,02,30,15.70
2015,08,18,02,31,15.70
2015,08,18,02,32,15.70
2015,08,18,02,33,15.70
2015,08,18,02,34,15.70
2015,08,18,02,35,15.70
2015,08,18,02,36,15.70
2015,08,18,02,37,15.70
2015,08,18,02,38,15.70
2015,08,18,02,39,15.70
2015,08,18,02,40,15.70
2015,08,18,02,41,15.80
2015,08,18,02,42,15.80
2015,08,18,02,43,15.80
2015,08,18,02,44,15.90
2015,08,18,02,45,15.90
2015,08,18,02,46,15.90
2015,08,18,02,47,15.90
2015,08,18,02,48,15.90
2015,08,18,02,49,15.90
2015,08,18,02,50,15.90
2015,08,18,02,51,15.90
2015,08,18,02,52,15.90
2015,08,18,02,53,15.80
2015,08,18,02,54,15.80
2015,08,18,02,55,15.80
2015,08,18,02,56,15.80
2015,08,18,02,57,15.80
2015,08,18,02,58,15.80
2015,08,18,02,59,15.80
2015,08,18,03,00,15.80
2015,08,18,03,01,15.80
2015,08,18,03,02,15.80
2015,08,18,04,02,15.60
2015,08,18,04,03,15.60
2015,08,18,04,04,15.60
2015,08,18,04,05,15.60
2015,08,18,04,06,15.60
2015,08,18,04,07,15.60
2015,08,18,04,08,15.70
2015,08,18,04,09,15.70
2015,08,18,04,10,15.70
2015,08,18,04,11,15.70
2015,08,18,04,12,15.80
2015,08,18,04,13,15.80
2015,08,18,04,14,15.80
2015,08,18,04,15,15.80
2015,08,18,04,16,15.80
2015,08,18,04,17,15.80
2015,08,18,04,18,15.80
2015,08,18,04,19,15.80
2015,08,18,04,20,15.80
2015,08,18,04,21,15.80
2015,08,18,04,22,15.80
2015,08,18,04,23,15.80
2015,08,18,04,24,15.90
2015,08,18,04,25,15.90
2015,08,18,04,26,15.90
2015,08,18,04,27,15.90
2015,08,18,04,28,15.90
2015,08,18,04,29,16.00
2015,08,18,04,30,16.00
2015,08,18,04,31,16.10
2015,08,18,04,32,16.10
2015,08,18,04,33,16.10
2015,08,18,04,34,16.20
2015,08,18,04,35,16.20
2015,08,18,04,36,16.20
2015,08,18,04,37,16.20
2015,08,18,04,38,16.30
2015,08,18,04,39,16.30
2015,08,18,04,40,16.30
2015,08,18,04,41,16.30
2015,08,18,04,42,16.30
2015,08,18,04,43,16.30
2015,08,18,04,44,16.30
2015,08,18,04,45,16.30
2015,08,18,04,46,16.30
2015,08,18,04,47,16.30
2015,08,18,04,48,16.30
2015,08,18,04,49,16.40
2015,08,18,04,50,16.40
2015,08,18,04,51,16.40
2015,08,18,04,52,16.40
2015,08,18,04,53,16.40
2015,08,18,04,54,16.40
2015,08,18,04,55,16.40
2015,08,18,04,56,16.40
2015,08,18,04,57,16.40
2015,08,18,04,58,16.40
2015,08,18,04,59,16.30
2015,08,18,05,00,16.30
2015,08,18,05,01,16.30
2015,08,18,05,02,16.30
2015,08,18,05,03,16.30
2015,08,18,05,04,16.30
2015,08,18,05,05,16.30
2015,08,18,05,06,16.30
2015,08,18,05,07,16.30
2015,08,18,05,08,16.30
2015,08,18,05,09,16.30
2015,08,18,05,10,16.30
2015,08,18,05,11,16.30
2015,08,18,05,12,16.30
2015,08,18,05,13,16.30
2015,08,18,05,14,16.30
2015,08,18,05,15,16.30
2015,08,18,05,16,16.30
2015,08,18,05,17,16.30
2015,08,18,05,18,16.30
2015,08,18,05,19,16.30
2015,08,18,05,20,16.30
2015,08,18,05,21,16.30
2015,08,18,05,22,16.30
2015,08,18,05,23,16.30
2015,08,18,05,24,16.30
2015,08,18,05,25,16.30
2015,08,18,05,26,16.30
2015,08,18,05,27,16.20
2015,08,18,05,28,16.20
2015,08,18,05,29,16.20
2015,08,18,05,30,16.20
2015,08,18,05,31,16.20
2015,08,18,05,32,16.20
2015,08,18,05,33,16.20
2015,08,18,05,34,16.20
2015,08,18,05,35,16.20
2015,08,18,05,36,16.20
2015,08,18,05,37,16.20
2015,08,18,05,38,16.20
2015,08,18,05,39,16.20
2015,08,18,05,40,16.20
2015,08,18,05,41,16.20
2015,08,18,05,42,16.20
2015,08,18,05,43,16.20
2015,08,18,05,44,16.20
2015,08,18,05,45,16.20
2015,08,18,05,46,16.20
2015,08,18,05,47,16.20
2015,08,18,05,48,16.20
2015,08,18,05,49,16.20
2015,08,18,05,50,16.20
2015,08,18,05,51,16.20
2015,08,18,05,52,16.10
2015,08,18,05,53,16.10
2015,08,18,05,54,16.10
2015,08,18,05,55,16.10
2015,08,18,05,56,16.10
2015,08,18,05,57,16.10
2015,08,18,05,58,16.10
2015,08,18,05,59,16.00
2015,08,18,06,00,16.00
2015,08,18,06,01,16.00
2015,08,18,06,02,16.00
2015,08,18,06,03,16.00
2015,08,18,06,04,16.00
2015,08,18,06,05,15.90
2015,08,18,06,06,15.90
2015,08,18,06,07,15.90
2015,08,18,06,08,15.90
2015,08,18,06,09,15.90
2015,08,18,06,10,15.90
2015,08,18,06,11,15.90
2015,08,18,06,12,15.90
2015,08,18,06,13,15.90
2015,08,18,06,14,15.90
2015,08,18,06,15,15.90
2015,08,18,06,16,15.90
2015,08,18,06,17,15.90
2015,08,18,06,18,15.90
2015,08,18,06,19,15.90
2015,08,18,06,20,15.90
2015,08,18,06,21,15.90
2015,08,18,06,22,15.90
2015,08,18,06,23,15.90
2015,08,18,06,24,15.90
2015,08,18,06,25,15.90
2015,08,18,06,26,15.90
2015,08,18,06,27,15.90
2015,08,18,06,28,15.90
2015,08,18,06,29,15.90
2015,08,18,06,30,15.90
2015,08,18,06,31,15.90
2015,08,18,06,32,15.90
2015,08,18,06,33,15.90
2015,08,18,06,34,15.90
2015,08,18,06,35,15.90
2015,08,18,06,36,15.90
2015,08,18,06,37,15.90
2015,08,18,06,38,15.90
2015,08,18,06,39,15.90
2015,08,18,06,40,15.90
2015,08,18,06,41,15.80
2015,08,18,06,42,15.80
2015,08,18,06,43,15.80
2015,08,18,06,44,15.80
2015,08,18,06,45,15.80
2015,08,18,06,46,15.80
2015,08,18,06,47,15.80
2015,08,18,06,48,15.80
2015,08,18,06,49,15.90
2015,08,18,06,50,15.90
2015,08,18,06,51,15.90
2015,08,18,06,52,15.90
2015,08,18,06,53,15.90
2015,08,18,06,54,15.90
2015,08,18,06,55,15.90
2015,08,18,06,56,15.90
2015,08,18,06,57,15.90
2015,08,18,06,58,15.90
2015,08,18,06,59,15.90
2015,08,18,07,00,15.90
2015,08,18,07,01,15.90
2015,08,18,07,02,15.90
2015,08,18,07,03,15.90
2015,08,18,07,04,15.90
2015,08,18,07,05,16.00
2015,08,18,07,06,16.00
2015,08,18,07,07,16.00
2015,08,18,07,08,16.10
2015,08,18,07,09,16.10
2015,08,18,07,10,16.10
2015,08,18,07,11,16.10
2015,08,18,07,12,16.20
2015,08,18,07,13,16.20
2015,08,18,07,14,16.20
2015,08,18,07,15,16.20
2015,08,18,07,16,16.20
2015,08,18,07,17,16.30
2015,08,18,07,18,16.30
2015,08,18,07,19,16.30
2015,08,18,07,20,16.40
2015,08,18,07,21,16.50
2015,08,18,07,22,16.50
2015,08,18,07,23,16.60
2015,08,18,07,24,16.60
2015,08,18,07,25,16.70
2015,08,18,07,26,16.70
2015,08,18,07,27,16.70
2015,08,18,07,28,16.80
2015,08,18,07,29,16.80
2015,08,18,07,30,16.80
2015,08,18,07,31,16.80
2015,08,18,07,32,16.80
2015,08,18,07,33,16.90
2015,08,18,07,34,16.90
2015,08,18,07,35,16.90
2015,08,18,07,36,17.00
2015,08,18,07,37,17.00
2015,08,18,07,38,17.00
2015,08,18,07,39,17.10
2015,08,18,07,40,17.10
2015,08,18,07,41,17.10
2015,08,18,07,42,17.10
2015,08,18,07,43,17.10
2015,08,18,07,44,17.20
2015,08,18,07,45,17.20
2015,08,18,07,46,17.20
2015,08,18,07,47,17.20
2015,08,18,07,48,17.30
2015,08,18,07,49,17.30
2015,08,18,07,50,17.30
2015,08,18,07,51,17.30
2015,08,18,07,52,17.40
2015,08,18,07,53,17.40
2015,08,18,07,54,17.40
2015,08,18,07,55,17.50
2015,08,18,07,56,17.50
2015,08,18,07,57,17.50
2015,08,18,07,58,17.60
2015,08,18,07,59,17.60
2015,08,18,08,00,17.60
2015,08,18,08,01,17.70
2015,08,18,08,02,17.70
2015,08,18,08,03,17.70
2015,08,18,08,04,17.70
2015,08,18,08,05,17.70
2015,08,18,08,06,17.80
2015,08,18,08,07,17.80
2015,08,18,08,08,17.80
2015,08,18,08,09,17.80
2015,08,18,08,10,17.80
2015,08,18,08,11,17.90
2015,08,18,08,12,17.90
2015,08,18,08,13,17.90
2015,08,18,08,14,17.90
2015,08,18,08,15,18.00
2015,08,18,08,16,18.00
2015,08,18,08,17,18.00
2015,08,18,08,18,18.10
2015,08,18,08,19,18.10
2015,08,18,08,20,18.10
2015,08,18,08,21,18.10
2015,08,18,08,22,18.20
2015,08,18,08,23,18.20
2015,08,18,08,24,18.20
2015,08,18,08,25,18.20
2015,08,18,08,26,18.30
2015,08,18,08,27,18.30
2015,08,18,08,28,18.30
2015,08,18,08,29,18.30
2015,08,18,08,30,18.40
2015,08,18,08,31,18.40
2015,08,18,08,32,18.40
2015,08,18,08,33,18.50
2015,08,18,08,34,18.50
2015,08,18,08,35,18.50
2015,08,18,08,36,18.60
2015,08,18,08,37,18.60
2015,08,18,08,38,18.60
2015,08,18,08,39,18.70
2015,08,18,08,40,18.70
2015,08,18,08,41,18.70
2015,08,18,08,42,18.70
2015,08,18,08,43,18.80
2015,08,18,08,44,18.80
2015,08,18,08,45,18.80
2015,08,18,08,46,18.90
2015,08,18,08,47,18.90
2015,08,18,08,48,18.90
2015,08,18,08,49,18.90
2015,08,18,08,50,18.90
2015,08,18,08,51,19.00
2015,08,18,08,52,19.00
2015,08,18,08,53,19.10
2015,08,18,08,54,19.10
2015,08,18,08,55,19.10
2015,08,18,08,56,19.10
2015,08,18,08,57,19.20
2015,08,18,08,58,19.20
2015,08,18,08,59,19.20
2015,08,18,09,00,19.20
2015,08,18,09,01,19.20
2015,08,18,09,02,19.20
2015,08,18,09,03,19.20
2015,08,18,09,04,19.20
2015,08,18,09,05,19.20
2015,08,18,09,06,19.30
2015,08,18,09,07,19.30
2015,08,18,09,08,19.30
2015,08,18,09,09,19.30
2015,08,18,09,10,19.30
2015,08,18,09,11,19.30
2015,08,18,09,12,19.40
2015,08,18,09,13,19.40
2015,08,18,09,14,19.40
2015,08,18,09,15,19.50
2015,08,18,09,16,19.50
2015,08,18,09,17,19.50
2015,08,18,09,18,19.60
2015,08,18,09,19,19.60
2015,08,18,09,20,19.60
2015,08,18,09,21,19.70
2015,08,18,09,22,19.70
2015,08,18,09,23,19.70
2015,08,18,09,24,19.70
2015,08,18,09,25,19.80
2015,08,18,09,26,19.80
2015,08,18,09,27,19.80
2015,08,18,09,28,19.90
2015,08,18,09,29,19.90
2015,08,18,09,30,20.00
2015,08,18,09,31,20.00
2015,08,18,09,32,20.10
2015,08,18,09,33,20.10
2015,08,18,09,34,20.20
2015,08,18,09,35,20.20
2015,08,18,09,36,20.30
2015,08,18,09,37,20.40
2015,08,18,09,38,20.40
2015,08,18,09,39,20.40
2015,08,18,09,40,20.50
2015,08,18,09,41,20.50
2015,08,18,09,42,20.50
2015,08,18,09,43,20.50
2015,08,18,09,44,20.60
2015,08,18,09,45,20.60
2015,08,18,09,46,20.60
2015,08,18,09,47,20.60
2015,08,18,09,48,20.60
2015,08,18,09,49,20.70
2015,08,18,09,50,20.80
2015,08,18,09,51,20.80
2015,08,18,09,52,20.80
2015,08,18,09,53,20.80
2015,08,18,09,54,20.80
2015,08,18,09,55,20.80
2015,08,18,09,56,20.80
2015,08,18,09,57,20.80
2015,08,18,09,58,20.90
2015,08,18,09,59,20.90
2015,08,18,10,00,20.90
2015,08,18,10,01,20.90
2015,08,18,10,02,20.80
2015,08,18,10,03,20.90
2015,08,18,10,04,20.90
2015,08,18,10,05,21.00
2015,08,18,10,06,21.00
2015,08,18,10,07,21.10
2015,08,18,10,08,21.20
2015,08,18,10,09,21.20
2015,08,18,10,10,21.30
2015,08,18,10,11,21.40
2015,08,18,10,12,21.40
2015,08,18,10,13,21.40
2015,08,18,10,14,21.50
2015,08,18,10,15,21.60
2015,08,18,10,16,21.60
2015,08,18,10,17,21.70
2015,08,18,10,18,21.70
2015,08,18,10,19,21.70
2015,08,18,10,20,21.70
2015,08,18,10,21,21.80
2015,08,18,10,22,21.80
2015,08,18,10,23,21.90
2015,08,18,10,24,21.80
2015,08,18,10,25,21.80
2015,08,18,10,26,21.80
2015,08,18,10,27,21.80
2015,08,18,10,28,21.90
2015,08,18,10,29,21.90
2015,08,18,10,30,22.00
2015,08,18,10,31,22.10
2015,08,18,10,32,22.10
2015,08,18,10,33,22.10
2015,08,18,10,34,22.10
2015,08,18,10,35,22.10
2015,08,18,10,36,22.20
2015,08,18,10,37,22.20
2015,08,18,10,38,22.20
2015,08,18,10,39,22.20
2015,08,18,10,40,22.20
2015,08,18,10,41,22.20
2015,08,18,10,42,22.30
2015,08,18,10,43,22.30
2015,08,18,10,44,22.40
2015,08,18,10,45,22.40
2015,08,18,10,46,22.40
2015,08,18,10,47,22.50
2015,08,18,10,48,22.60
2015,08,18,10,49,22.70
2015,08,18,10,50,22.70
2015,08,18,10,51,22.80
2015,08,18,10,52,22.80
2015,08,18,10,53,22.80
2015,08,18,10,54,22.80
2015,08,18,10,55,22.80
2015,08,18,10,56,22.80
2015,08,18,10,57,22.80
2015,08,18,10,58,22.90
2015,08,18,10,59,23.00
2015,08,18,11,00,23.10
2015,08,18,11,01,23.20
2015,08,18,11,02,23.30
2015,08,18,11,03,23.40
2015,08,18,11,04,23.40
2015,08,18,11,05,23.40
2015,08,18,11,06,23.50
2015,08,18,11,07,23.50
2015,08,18,11,08,23.60
2015,08,18,11,09,23.60
2015,08,18,11,10,23.60
2015,08,18,11,11,23.60
2015,08,18,11,12,23.70
2015,08,18,11,13,23.70
2015,08,18,11,14,23.80
2015,08,18,11,15,23.90
2015,08,18,11,16,24.00
2015,08,18,11,17,24.10
2015,08,18,11,18,24.10
2015,08,18,11,19,24.10
2015,08,18,11,20,24.10
2015,08,18,11,21,24.20
2015,08,18,11,22,24.20
2015,08,18,11,23,24.20
2015,08,18,11,24,24.30
2015,08,18,11,25,24.30
2015,08,18,11,26,24.40
2015,08,18,11,27,24.40
2015,08,18,11,28,24.40
2015,08,18,11,29,24.50
2015,08,18,11,30,24.50
2015,08,18,11,31,24.40
2015,08,18,11,32,24.40
2015,08,18,11,33,24.40
2015,08,18,11,34,24.40
2015,08,18,11,35,24.30
2015,08,18,11,36,24.30
2015,08,18,11,37,24.30
2015,08,18,11,38,24.30
2015,08,18,11,39,24.30
2015,08,18,11,40,24.30
2015,08,18,11,41,24.20
2015,08,18,11,42,24.20
2015,08,18,11,43,24.20
2015,08,18,11,44,24.20
2015,08,18,11,45,24.20
2015,08,18,11,46,24.20
2015,08,18,11,47,24.30
2015,08,18,11,48,24.30
2015,08,18,11,49,24.30
2015,08,18,11,50,24.30
2015,08,18,11,51,24.30
2015,08,18,11,52,24.30
2015,08,18,11,53,24.30
2015,08,18,11,54,24.30
2015,08,18,11,55,24.40
2015,08,18,11,56,24.50
2015,08,18,11,57,24.60
2015,08,18,11,58,24.60
2015,08,18,11,59,24.60
2015,08,18,12,00,24.60
2015,08,18,12,01,24.50
2015,08,18,12,02,24.50
2015,08,18,12,03,24.40
2015,08,18,12,04,24.40
2015,08,18,12,05,24.40
2015,08,18,12,06,24.40
2015,08,18,12,07,24.50
2015,08,18,12,08,24.60
2015,08,18,12,09,24.60
2015,08,18,12,10,24.60
2015,08,18,12,11,24.70
2015,08,18,12,12,24.80
2015,08,18,12,13,24.80
2015,08,18,12,14,24.80
2015,08,18,12,15,24.80
2015,08,18,12,16,24.80
2015,08,18,12,17,24.80
2015,08,18,12,18,24.80
2015,08,18,12,19,24.90
2015,08,18,12,20,25.00
2015,08,18,12,21,25.00
2015,08,18,12,22,25.10
2015,08,18,12,23,25.20
2015,08,18,12,24,25.30
2015,08,18,12,25,25.40
2015,08,18,12,26,25.40
2015,08,18,12,27,25.50
2015,08,18,12,28,25.60
2015,08,18,12,29,25.70
2015,08,18,12,30,25.80
2015,08,18,12,31,25.90
2015,08,18,12,32,25.90
2015,08,18,12,33,26.00
2015,08,18,12,34,26.10
2015,08,18,12,35,26.10
2015,08,18,12,36,26.10
2015,08,18,12,37,26.10
2015,08,18,12,38,26.20
2015,08,18,12,39,26.20
2015,08,18,12,40,26.20
2015,08,18,12,41,26.20
2015,08,18,12,42,26.20
2015,08,18,12,43,26.10
2015,08,18,12,44,26.00
2015,08,18,12,45,26.00
2015,08,18,12,46,26.00
2015,08,18,12,47,26.10
2015,08,18,12,48,26.10
2015,08,18,12,49,26.20
2015,08,18,12,50,26.20
2015,08,18,12,51,26.20
2015,08,18,12,52,26.20
2015,08,18,12,53,26.30
2015,08,18,12,54,26.30
2015,08,18,12,55,26.30
2015,08,18,12,56,26.30
2015,08,18,12,57,26.40
2015,08,18,12,58,26.40
2015,08,18,12,59,26.50
2015,08,18,13,00,26.50
2015,08,18,13,01,26.60
2015,08,18,13,02,26.60
2015,08,18,13,03,26.70
2015,08,18,13,04,26.70
2015,08,18,13,05,26.70
2015,08,18,13,06,26.70
2015,08,18,13,07,26.70
2015,08,18,13,08,26.70
2015,08,18,13,09,26.70
2015,08,18,13,10,26.70
2015,08,18,13,11,26.70
2015,08,18,13,12,26.70
2015,08,18,13,13,26.70
2015,08,18,13,14,26.70
2015,08,18,13,15,26.70
2015,08,18,13,16,26.60
2015,08,18,13,17,26.60
2015,08,18,13,18,26.60
2015,08,18,13,19,26.60
2015,08,18,13,20,26.60
2015,08,18,13,21,26.60
2015,08,18,13,22,26.60
2015,08,18,13,23,26.70
2015,08,18,13,24,26.70
2015,08,18,13,25,26.70
2015,08,18,13,26,26.70
2015,08,18,13,27,26.80
2015,08,18,13,28,26.80
2015,08,18,13,29,26.80
2015,08,18,13,30,26.90
2015,08,18,13,31,26.90
2015,08,18,13,32,26.90
2015,08,18,13,33,27.00
2015,08,18,13,34,27.00
2015,08,18,13,35,27.10
2015,08,18,13,36,27.10
2015,08,18,13,37,27.20
2015,08,18,13,38,27.20
2015,08,18,13,39,27.20
2015,08,18,13,40,27.30
2015,08,18,13,41,27.40
2015,08,18,13,42,27.50
2015,08,18,13,43,27.60
2015,08,18,13,44,27.70
2015,08,18,13,45,27.70
2015,08,18,13,46,27.70
2015,08,18,13,47,27.70
2015,08,18,13,48,27.70
2015,08,18,13,49,27.70
2015,08,18,13,50,27.70
2015,08,18,13,51,27.80
2015,08,18,13,52,27.80
2015,08,18,13,53,27.80
2015,08,18,13,54,27.90
2015,08,18,13,55,27.90
2015,08,18,13,56,28.00
2015,08,18,13,57,28.10
2015,08,18,13,58,28.10
2015,08,18,13,59,28.10
2015,08,18,14,00,28.10
2015,08,18,14,01,28.00
2015,08,18,14,02,27.90
2015,08,18,14,03,27.80
2015,08,18,14,04,27.80
2015,08,18,14,05,27.80
2015,08,18,14,06,27.80
2015,08,18,14,07,27.90
2015,08,18,14,08,27.90
2015,08,18,14,09,27.90
2015,08,18,14,10,28.00
2015,08,18,14,11,28.00
2015,08,18,14,12,28.00
2015,08,18,14,13,27.90
2015,08,18,14,14,27.90
2015,08,18,14,15,27.90
2015,08,18,14,16,27.80
2015,08,18,14,17,27.80
2015,08,18,14,18,27.80
2015,08,18,14,19,27.80
2015,08,18,14,20,27.90
2015,08,18,14,21,28.00
2015,08,18,14,22,28.00
2015,08,18,14,23,28.10
2015,08,18,14,24,28.20
2015,08,18,14,25,28.20
2015,08,18,14,26,28.20
2015,08,18,14,27,28.20
2015,08,18,14,28,28.30
2015,08,18,14,29,28.40
2015,08,18,14,30,28.50
2015,08,18,14,31,28.50
2015,08,18,14,32,28.60
2015,08,18,14,33,28.70
2015,08,18,14,34,28.70
2015,08,18,14,35,28.80
2015,08,18,14,36,28.80
2015,08,18,14,37,28.80
2015,08,18,14,38,28.90
2015,08,18,14,39,29.00
2015,08,18,14,40,29.10
2015,08,18,14,41,29.10
2015,08,18,14,42,29.10
2015,08,18,14,43,29.10
2015,08,18,14,44,29.10
2015,08,18,14,45,29.10
2015,08,18,14,46,29.10
2015,08,18,14,47,29.00
2015,08,18,14,48,29.00
2015,08,18,14,49,28.90
2015,08,18,14,50,28.90
2015,08,18,14,51,28.90
2015,08,18,14,52,29.00
2015,08,18,14,53,29.10
2015,08,18,14,54,29.10
2015,08,18,14,55,29.10
2015,08,18,14,56,29.10
2015,08,18,14,57,29.10
2015,08,18,14,58,29.20
2015,08,18,14,59,29.20
2015,08,18,15,00,29.20
2015,08,18,15,01,29.30
2015,08,18,15,02,29.30
2015,08,18,15,03,29.30
2015,08,18,15,04,29.30
2015,08,18,15,05,29.40
2015,08,18,15,06,29.40
2015,08,18,15,07,29.50
2015,08,18,15,08,29.50
2015,08,18,15,09,29.50
2015,08,18,15,10,29.50
2015,08,18,15,11,29.40
2015,08,18,15,12,29.40
2015,08,18,15,13,29.40
2015,08,18,15,14,29.30
2015,08,18,15,15,29.30
2015,08,18,15,16,29.30
2015,08,18,15,17,29.30
2015,08,18,15,18,29.40
2015,08,18,15,19,29.50
2015,08,18,15,20,29.60
2015,08,18,15,21,29.60
2015,08,18,15,22,29.60
2015,08,18,15,23,29.50
2015,08,18,15,24,29.50
2015,08,18,15,25,29.50
2015,08,18,15,26,29.60
2015,08,18,15,27,29.60
2015,08,18,15,28,29.60
2015,08,18,15,29,29.60
2015,08,18,15,30,29.60
2015,08,18,15,31,29.60
2015,08,18,15,32,29.60
2015,08,18,15,33,29.60
2015,08,18,15,34,29.70
2015,08,18,15,35,29.70
2015,08,18,15,36,29.70
2015,08,18,15,37,29.80
2015,08,18,15,38,29.80
2015,08,18,15,39,29.80
2015,08,18,15,40,29.70
2015,08,18,15,41,29.70
2015,08,18,15,42,29.70
2015,08,18,15,43,29.70
2015,08,18,15,44,29.60
2015,08,18,15,45,29.50
2015,08,18,15,46,29.40
2015,08,18,15,47,29.40
2015,08,18,15,48,29.40
2015,08,18,15,49,29.40
2015,08,18,15,50,29.40
2015,08,18,15,51,29.50
2015,08,18,15,52,29.50
2015,08,18,15,53,29.60
2015,08,18,15,54,29.70
2015,08,18,15,55,29.80
2015,08,18,15,56,29.80
2015,08,18,15,57,29.80
2015,08,18,15,58,29.80
2015,08,18,15,59,29.80
2015,08,18,16,00,29.80
2015,08,18,16,01,29.80
2015,08,18,16,02,29.80
2015,08,18,16,03,29.80
2015,08,18,16,04,29.90
2015,08,18,16,05,29.90
2015,08,18,16,06,30.00
2015,08,18,16,07,30.00
2015,08,18,16,08,30.10
2015,08,18,16,09,30.10
2015,08,18,16,10,30.10
2015,08,18,16,11,30.20
2015,08,18,16,12,30.20
2015,08,18,16,13,30.20
2015,08,18,16,14,30.20
2015,08,18,16,15,30.30
2015,08,18,16,16,30.30
2015,08,18,16,17,30.20
2015,08,18,16,18,30.10
2015,08,18,16,19,30.00
2015,08,18,16,20,29.90
2015,08,18,16,21,29.80
2015,08,18,16,22,29.70
2015,08,18,16,23,29.70
2015,08,18,16,24,29.70
2015,08,18,16,25,29.70
2015,08,18,16,26,29.70
2015,08,18,16,27,29.80
2015,08,18,16,28,29.80
2015,08,18,16,29,29.80
2015,08,18,16,30,29.80
2015,08,18,16,31,29.80
2015,08,18,16,32,29.80
2015,08,18,16,33,29.90
2015,08,18,16,34,29.90
2015,08,18,16,35,30.00
2015,08,18,16,36,30.00
2015,08,18,16,37,30.00
2015,08,18,16,38,29.90
2015,08,18,16,39,29.90
2015,08,18,16,40,29.90
2015,08,18,16,41,30.00
2015,08,18,16,42,30.00
2015,08,18,16,43,29.90
2015,08,18,16,44,29.90
2015,08,18,16,45,29.90
2015,08,18,16,46,29.90
2015,08,18,16,47,29.80
2015,08,18,16,48,29.80
2015,08,18,16,49,29.80
2015,08,18,16,50,29.90
2015,08,18,16,51,29.90
2015,08,18,16,52,29.90
2015,08,18,16,53,29.90
2015,08,18,16,54,29.80
2015,08,18,16,55,29.80
2015,08,18,16,56,29.80
2015,08,18,16,57,29.80
2015,08,18,16,58,29.80
2015,08,18,16,59,29.80
2015,08,18,17,00,29.80
2015,08,18,17,01,29.80
2015,08,18,17,02,29.80
2015,08,18,17,03,29.80
2015,08,18,17,04,29.80
2015,08,18,17,05,29.80
2015,08,18,17,06,29.80
2015,08,18,17,07,29.80
2015,08,18,17,08,29.90
2015,08,18,17,09,30.00
2015,08,18,17,10,30.10
2015,08,18,17,11,30.20
2015,08,18,17,12,30.20
2015,08,18,17,13,30.20
2015,08,18,17,14,30.30
2015,08,18,17,15,30.30
2015,08,18,17,16,30.20
2015,08,18,17,17,30.10
2015,08,18,17,18,30.00
2015,08,18,17,19,29.90
2015,08,18,17,20,29.90
2015,08,18,17,21,29.90
2015,08,18,17,22,30.00
2015,08,18,17,23,30.00
2015,08,18,17,24,29.90
2015,08,18,17,25,29.80
2015,08,18,17,26,29.80
2015,08,18,17,27,29.90
2015,08,18,17,28,30.00
2015,08,18,17,29,30.10
2015,08,18,17,30,30.10
2015,08,18,17,31,30.10
2015,08,18,17,32,30.20
2015,08,18,17,33,30.20
2015,08,18,17,34,30.30
2015,08,18,17,35,30.30
2015,08,18,17,36,30.40
2015,08,18,17,37,30.40
2015,08,18,17,38,30.40
2015,08,18,17,39,30.30
2015,08,18,17,40,30.30
2015,08,18,17,41,30.30
2015,08,18,17,42,30.30
2015,08,18,17,43,30.30
2015,08,18,17,44,30.30
2015,08,18,17,45,30.30
2015,08,18,17,46,30.30
2015,08,18,17,47,30.20
2015,08,18,17,48,30.20
2015,08,18,17,49,30.10
2015,08,18,17,50,30.10
2015,08,18,17,51,30.10
2015,08,18,17,52,30.00
2015,08,18,17,53,29.90
2015,08,18,17,54,29.90
2015,08,18,17,55,29.80
2015,08,18,17,56,29.80
2015,08,18,17,57,29.80
2015,08,18,17,58,29.80
2015,08,18,17,59,29.80
2015,08,18,18,00,29.80
2015,08,18,18,01,29.80
2015,08,18,18,02,29.80
2015,08,18,18,03,29.80
2015,08,18,18,04,29.90
2015,08,18,18,05,29.90
2015,08,18,18,06,29.90
2015,08,18,18,07,29.80
2015,08,18,18,08,29.80
2015,08,18,18,09,29.80
2015,08,18,18,10,29.70
2015,08,18,18,11,29.60
2015,08,18,18,12,29.50
2015,08,18,18,13,29.40
2015,08,18,18,14,29.40
2015,08,18,18,15,29.30
2015,08,18,18,16,29.30
2015,08,18,18,17,29.20
2015,08,18,18,18,29.20